Regional Weather Roundup
Issued by NWS

Home | Current Version | Previous Version | Graphics & Text | Print | Product List | Glossary On
Versions: 1 2 3 4 5 6 7 8 9 10 11 12 13 14 15 16 17 18 19 20 21 22 23 24 25 26 27 28 29 30 31 32 33 34 35 36 37 38 39 40 41 42 43 44 45 46 47 48 49 50
000
ASUS43 KOAX 021302
RWRNE

WEATHER ROUNDUP FOR NEBRASKA
NATIONAL WEATHER SERVICE OMAHA NE
800 AM CDT WED SEP 02 2015

NOTES: SATELLITE DATA IS BEING USED TO AUGMENT CLOUD COVER ABOVE
       12000 FEET.
       "FAIR" INDICATES FEW OR NO CLOUDS BELOW 12,000 FEET WITH NO
       SIGNIFICANT WEATHER AND/OR OBSTRUCTIONS TO VISIBILITY.

  * THESE STATIONS DO NOT REPORT WEATHER SUCH AS RAIN...SNOW OR FOG.

NEZ001>004-019>022-054>056-021400-
NEBRASKA PANHANDLE

CITY           SKY/WX    TMP DP  RH WIND       PRES   REMARKS
SCOTTSBLUFF    PTCLDY    55  51  86 W6        29.98R
ALLIANCE       MOCLDY    54  47  77 CALM      29.97R
CHADRON        MOCLDY    59  47  64 CALM      29.91R
KIMBALL        PTCLDY    58  43  57 W6        30.03R
SIDNEY         CLEAR     61  43  51 W10       30.01R
$$

NEZ057>060-069>072-079>082-021400-
SOUTHWEST NEBRASKA

CITY           SKY/WX    TMP DP  RH WIND       PRES   REMARKS
NORTH PLATTE   CLEAR     60  57  89 CALM      29.91S
IMPERIAL       CLEAR     60  54  80 SW6       29.96R
LEXINGTON      CLEAR     62  60  94 CALM      29.90S FOG
MCCOOK         CLEAR     62  57  83 CALM      29.91R
$$

NEZ005>010-023>029-035>040-094-021400-
NORTH CENTRAL NEBRASKA

CITY           SKY/WX    TMP DP  RH WIND       PRES   REMARKS
VALENTINE      CLEAR     58  55  90 SW6       29.86R
BROKEN BOW     CLEAR     64  61  90 CALM      29.89R
ORD            CLEAR     62  59  90 CALM      29.88R
$$

NEZ041-046>049-061>064-073>077-083>087-021400-
SOUTH CENTRAL NEBRASKA

CITY           SKY/WX    TMP DP  RH WIND       PRES   REMARKS
GRAND ISLAND   SUNNY     68  62  81 S7        29.90R
AURORA         SUNNY     70  65  82 S9        29.90R
HASTINGS       SUNNY     68  60  75 S7        29.91R
KEARNEY *      CLEAR     63  57  82 S3        29.90R
YORK           SUNNY     68  66  94 S8        29.90R
$$

NEZ011>018-030>034-042>045-021400-
NORTHEAST NEBRASKA

CITY           SKY/WX    TMP DP  RH WIND       PRES   REMARKS
NORFOLK        SUNNY     67  66  97 SE5       29.87R FOG
ALBION         SUNNY     67  62  83 SE3       29.88R
BLAIR          SUNNY     72  67  83 S12       29.91S
COLUMBUS *     SUNNY     72  63  73 S3        29.89R
FREMONT        SUNNY     73  68  84 SE10      29.90R
TEKAMAH        SUNNY     71  69  93 SE9       29.89R
$$

NEZ050>053-065>068-078-088>093-021400-
SOUTHEAST NEBRASKA

CITY           SKY/WX    TMP DP  RH WIND       PRES   REMARKS
LINCOLN        SUNNY     73  68  84 S7        29.91R
OMAHA EPPLEY   MOSUNNY   74  68  81 S14       29.92R
BEATRICE       SUNNY     73  66  80 S7        29.92R
FALLS CITY     LGT RAIN  72  68  87 SE10      29.97S
NEBRASKA CITY  MOSUNNY   73  66  78 S13       29.95R
PLATTSMOUTH    MOSUNNY   72  66  81 SE14G20   29.94R
$$

NEZ044-045-051>053-067-021400-
OMAHA AREA

CITY           SKY/WX    TMP DP  RH WIND       PRES   REMARKS
OMAHA EPPLEY   MOSUNNY   74  68  81 S14       29.92R
BLAIR          SUNNY     72  67  83 S12       29.91S
FREMONT        SUNNY     73  68  84 SE10      29.90R
OFFUTT AFB     SUNNY     73  68  84 SE12      29.92R
PLATTSMOUTH    MOSUNNY   72  66  81 SE14G20   29.94R
WAHOO          FAIR      70  68  93 SE8       29.90R
$$




USA.gov is the U.S. government's official web portal to all federal, state and local government web resources and services.